Location: Eitze
(52.9840°N, 9.6894°E)
Time: 23:32:51
(UTC+00:00)

Cosmos 2221 - Pass Details

Date: 19 May 2025
Orbit: 572 x 592 km, 82.5° (Epoch: 22 June)

Event Time Altitude Azimuth Distance (km) Brightness Sun altitude
Exits shadow 20:01:26 - 127° (SE) 2,150 4.7 -5.6°
Reaches altitude 10° 20:02:26 10° 117° (ESE) 1,894 4.4 -5.7°
Maximum altitude 20:04:46 15° 83° (E) 1,609 4.4 -6.0°
Drops below altitude 10° 20:07:05 10° 49° (NE) 1,897 5.0 -6.2°
Sets 20:10:05 0° 26° (NNE) 2,800 6.2 -6.5°
